Weather History for Imperial, NE

Change the Weather History Date:

Friday, January 11, 2013

  Actual Average Record
Temperature  
Mean Temperature 24 °F 28 °F  
Max Temperature 36 °F 41 °F 64 °F (2006)
Min Temperature 12 °F 15 °F -27 °F (1918)
Degree Days  
Heating Degree Days 41 37  
Month to date heating degree days 441 407  
Cooling Degree Days 0 0  
Month to date cooling degree days 0 0  
Year to date cooling degree days 0 0  
Moisture  
Dew Point 25 °F    
Average Humidity 84    
Maximum Humidity 100    
Minimum Humidity 67    
Precipitation  
Precipitation T in 0.01 in 0.30 in (1905)
Sea Level Pressure  
Sea Level Pressure 29.49 in    
Wind  
Wind Speed 13 mph (North)    
Max Wind Speed 31 mph    
Max Gust Speed 39 mph    
Visibility 3 miles    
Events Fog , Snow    
T = Trace of Precipitation, MM = Missing Value Source: NWS Daily Summary

Daily Weather History Graph

Daily Weather History Graph

Search for Another Location

Airport:

Trip Planner

Search our weather history database for the weather conditions in past years. The results will help you decide how hot, cold, wet, or windy it might be!

Date:

Astronomy

Jan. 11, 2013 Rise Set
Actual Time 7:09 AM MST 4:40 PM MST
Civil Twilight 6:38 AM MST 5:10 PM MST
Nautical Twilight 6:05 AM MST 5:44 PM MST
Astronomical Twilight 5:32 AM MST 6:17 PM MST
Moon 6:43 AM MST (1/11) 5:00 PM MST (1/11)
Length of Visible Light 10h 31m
Length of Day
9h 31m
Waning Crescent, 0% of the Moon is Illuminated
Jan 11
Waning Crescent
Jan 11
New
Jan 18
First Quarter
Jan 26
Full
Feb 3
Last Quarter

Hourly Weather History & Observations

Time (MST) Temp. Windchill Dew Point Humidity Pressure Visibility Wind Dir Wind Speed Gust Speed Precip Events Conditions
12:05 AM 35.6 °F 27.5 °F 35.6 °F 100% 29.47 in 0.8 mi SSE 11.5 mph - N/A   Mist
12:53 AM 36.0 °F 28.5 °F 36.0 °F 100% 29.49 in 0.5 mi South 10.4 mph - N/A Fog Fog
1:53 AM 36.0 °F 30.3 °F 35.1 °F 97% 29.47 in 0.2 mi South 6.9 mph - N/A Fog Fog
2:11 AM 35.6 °F 29.9 °F 35.6 °F 100% 29.42 in 0.5 mi South 6.9 mph - N/A Fog Fog
2:18 AM 35.6 °F 29.9 °F 35.6 °F 100% 29.42 in 0.2 mi South 6.9 mph - N/A Fog Fog
2:53 AM 35.1 °F 31.0 °F 35.1 °F 100% 29.46 in 0.2 mi South 4.6 mph - N/A Fog Fog
3:53 AM 34.0 °F 27.2 °F 34.0 °F 100% 29.43 in 0.2 mi SSE 8.1 mph - N/A Fog Fog
4:24 AM 33.8 °F 28.6 °F 33.8 °F 100% 29.36 in 0.2 mi South 5.8 mph - N/A Fog Fog
4:53 AM 30.9 °F 26.2 °F 30.9 °F 100% 29.40 in 0.2 mi South 4.6 mph - N/A Fog Light Freezing Fog
5:53 AM 28.9 °F - 28.9 °F 100% 29.40 in 0.2 mi Calm Calm - N/A Fog Light Freezing Fog
6:04 AM 28.4 °F - 28.4 °F 100% 29.34 in 0.5 mi Calm Calm - N/A Fog Light Freezing Fog
6:21 AM 28.4 °F - 26.6 °F 93% 29.34 in 1.8 mi Calm Calm - N/A   Overcast
6:32 AM 28.4 °F - 26.6 °F 93% 29.34 in 0.2 mi Calm Calm - N/A Fog Light Freezing Fog
6:53 AM 26.1 °F - 25.0 °F 96% 29.41 in 0.2 mi Calm Calm - N/A Fog Light Freezing Fog
7:02 AM 26.6 °F - 24.8 °F 93% 29.34 in 0.5 mi Calm Calm - N/A Fog Light Freezing Fog
7:28 AM 24.8 °F 20.5 °F 24.8 °F 100% 29.34 in 0.2 mi North 3.5 mph - N/A Fog Light Freezing Fog
7:53 AM 26.1 °F 20.5 °F 25.0 °F 96% 29.40 in 0.2 mi NNE 4.6 mph - N/A Fog Light Freezing Fog
8:38 AM 28.4 °F 19.1 °F 26.6 °F 93% 29.33 in 0.2 mi NNE 10.4 mph - N/A Fog Light Freezing Fog
8:53 AM 28.9 °F 18.6 °F 28.0 °F 96% 29.39 in 0.2 mi North 12.7 mph - N/A Fog Light Freezing Fog
9:53 AM 30.9 °F 21.7 °F 30.0 °F 96% 29.40 in 0.2 mi North 11.5 mph - N/A Fog Light Freezing Fog
10:21 AM 32.0 °F 22.5 °F 30.2 °F 93% 29.34 in 0.5 mi North 12.7 mph - N/A Fog Fog
10:29 AM 32.0 °F 22.1 °F 30.2 °F 93% 29.34 in 2.0 mi NNE 13.8 mph - N/A   Overcast
10:36 AM 32.0 °F 21.6 °F 30.2 °F 93% 29.33 in 4.0 mi NNE 15.0 mph - N/A   Overcast
10:53 AM 32.0 °F 22.1 °F 32.0 °F 100% 29.38 in 8.0 mi North 13.8 mph - N/A   Overcast
11:53 AM 34.0 °F 25.5 °F 33.1 °F 96% 29.34 in 3.0 mi NE 11.5 mph - N/A   Overcast
12:21 PM 33.8 °F 25.3 °F 33.8 °F 100% 29.30 in 3.0 mi NE 11.5 mph - N/A   Overcast
12:36 PM 35.6 °F 26.6 °F 33.8 °F 93% 29.30 in 2.5 mi NE 13.8 mph - N/A   Overcast
12:46 PM 35.6 °F 28.6 °F 33.8 °F 93% 29.32 in 3.0 mi NE 9.2 mph - N/A   Overcast
12:53 PM 35.6 °F 26.6 °F 33.8 °F 93% 29.32 in 4.0 mi North 13.8 mph - N/A   Overcast
1:05 PM 33.8 °F 22.2 °F 30.2 °F 87% 29.33 in 5.0 mi North 20.7 mph 26.5 mph N/A   Overcast
1:12 PM 32.0 °F 20.1 °F 30.2 °F 93% 29.34 in 2.5 mi North 19.6 mph 26.5 mph N/A   Overcast
1:25 PM 30.2 °F 17.8 °F 30.2 °F 100% 29.35 in 4.0 mi North 19.6 mph 28.8 mph N/A   Overcast
1:53 PM 30.0 °F 16.3 °F 28.0 °F 92% 29.42 in 4.0 mi North 24.2 mph 29.9 mph N/A   Overcast
2:24 PM 28.4 °F 14.7 °F 26.6 °F 93% 29.40 in 4.0 mi North 21.9 mph 29.9 mph N/A   Overcast
2:45 PM 28.4 °F 13.8 °F 26.6 °F 93% 29.45 in 2.5 mi North 25.3 mph 33.4 mph 0.00 in Snow Light Snow
2:53 PM 28.0 °F 13.0 °F 25.0 °F 88% 29.53 in 2.5 mi NNW 26.5 mph 33.4 mph 0.00 in Snow Light Snow
3:04 PM 28.4 °F 14.4 °F 24.8 °F 86% 29.47 in 2.0 mi NNW 23.0 mph 35.7 mph 0.00 in Snow Light Snow
3:10 PM 26.6 °F 11.1 °F 24.8 °F 93% 29.47 in 1.8 mi NNW 26.5 mph 34.5 mph 0.00 in Snow Light Snow
3:45 PM 24.8 °F 9.0 °F 21.2 °F 86% 29.53 in 2.0 mi NNW 25.3 mph 36.8 mph 0.00 in Snow Light Snow
3:53 PM 25.0 °F 10.2 °F 21.0 °F 85% 29.61 in 3.0 mi NNW 21.9 mph 31.1 mph 0.00 in Snow Light Snow
4:10 PM 24.8 °F 8.4 °F 19.4 °F 80% 29.56 in 1.8 mi NNW 27.6 mph 38.0 mph 0.00 in Snow Light Snow
4:15 PM 23.0 °F 8.0 °F 19.4 °F 86% 29.56 in 0.8 mi NNW 20.7 mph 38.0 mph 0.00 in Snow Light Snow
4:41 PM 23.0 °F 9.2 °F 19.4 °F 86% 29.58 in 2.0 mi NNW 17.3 mph - 0.00 in Snow Light Snow
4:53 PM 21.9 °F 5.8 °F 19.0 °F 89% 29.68 in 2.5 mi NNW 23.0 mph 31.1 mph 0.00 in Snow Light Snow
4:58 PM 21.2 °F 5.6 °F 17.6 °F 86% 29.60 in 4.0 mi NNW 20.7 mph 31.1 mph 0.00 in Snow Light Snow
5:05 PM 21.2 °F 3.9 °F 17.6 °F 86% 29.61 in 5.0 mi NNW 26.5 mph 35.7 mph 0.00 in Snow Light Snow
5:22 PM 19.4 °F 1.1 °F 15.8 °F 86% 29.64 in 10.0 mi NNW 27.6 mph 32.2 mph 0.00 in   Overcast
5:42 PM 19.4 °F 2.8 °F 15.8 °F 86% 29.65 in 10.0 mi NNW 21.9 mph 29.9 mph 0.00 in   Overcast
5:53 PM 19.9 °F 2.8 °F 15.1 °F 81% 29.75 in 10.0 mi NNW 24.2 mph 31.1 mph 0.00 in   Overcast
6:28 PM 19.4 °F 2.5 °F 12.2 °F 74% 29.70 in 10.0 mi NNW 23.0 mph 34.5 mph 0.00 in   Overcast
6:53 PM 19.0 °F 3.2 °F 12.0 °F 74% 29.83 in 10.0 mi NNW 19.6 mph 25.3 mph 0.00 in   Overcast
7:53 PM 17.1 °F 2.0 °F 8.1 °F 68% 29.89 in 10.0 mi NW 16.1 mph 24.2 mph N/A   Mostly Cloudy
8:53 PM 16.0 °F 2.3 °F 7.0 °F 68% 29.92 in 10.0 mi NW 12.7 mph - N/A   Mostly Cloudy
9:53 PM 14.0 °F 1.2 °F 6.1 °F 71% 29.94 in 10.0 mi WNW 10.4 mph - N/A   Clear
10:53 PM 12.9 °F 1.6 °F 6.1 °F 74% 29.99 in 10.0 mi West 8.1 mph - N/A   Clear
11:53 PM 12.0 °F -2.7 °F 5.0 °F 73% 30.00 in 10.0 mi WNW 12.7 mph - N/A   Clear